Погода в Посёлке Сахарного Завода

Россия / Липецкая область     52°54′24″N   39°03′57″E
темп.,
°C
ветер,
м/с
пор.,
м/с
влажн.,
%
обл.,
%
осадки,
мм/ч
давл.,
гПа
погр.,
м
8 мая, сб
сб800:00+8ююв47655 0.0 101595
03:00+7ююв51279100 0.0 1014266
06:00+9ююв71579100 0.0 1013580
09:00+8ююв71585100 1.5 1012594
12:00+13ююв81472100 0.3 10081050
15:00+12ююв81582100 1.8 1006976
18:00+12ю111889100 3.4 10041165
21:00+11юз71291100 3.9 1004661
9 мая, вс
вс900:00+9ююз61194100 0.0 1005565
03:00+7юз71192100 0.1 1006630
06:00+4зсз81496100 0.9 1010892
09:00+7сз81175100 1.0 10131042
12:00+8сз7968100 0.1 10161361
15:00+8сз8106799 0.1 10181282
18:00+7сз597152 0.0 10211034
21:00+4зсз22795 0.0 102323
10 мая, пн
пн1000:00+4сз49844 0.0 1024148
03:00+3ссз410830 0.0 1026201
06:00+4с412780 0.0 1027279
09:00+10с610580 0.0 10281211
12:00+12ссв79475 0.0 10271694
15:00+13ссв811485 0.0 10271680
18:00+12ссв712564 0.0 10271373
21:00+7с4117861 0.0 1028215
11 мая, вт
вт1100:00+7ссв6156973 0.0 1027433
03:00+8ссв71660100 0.0 1027542
06:00+7св71667100 0.0 1027510
09:00+11св81566100 0.0 1026630
12:00+14всв81161100 0.0 1026925
15:00+14всв7116996 0.0 1025890
18:00+15св497182 0.0 10251039
21:00+13св61378100 0.0 1024443
12 мая, ср
ср1200:00+11всв61283100 0.8 1023573
03:00+10ююв2498100 3.5 1024230
06:00+10в249595 0.0 1024139
09:00+13в457056 0.0 1024700
12:00+13всв4684100 0.4 1024475
15:00+12св3695100 0.8 1022386
18:00+14всв4996100 1.5 1021369
21:00+13всв41097100 3.5 1021312